CW9350 Weather Reports


Display with metric or nautical units.
time (UTC)temp
F
wind
direction
speed
MPH
gust
MPH
rain 1hr
in
rain 24hr
in
rain mn
in
humidity
%
barometer
mb
20260502151527 50 144 0.0 0.0 0.00 0.00 0.00 90 1012.6
20260502123052 37 144 1.0 0.0 0.00 0.00 0.00 90 1011.5
20260502121547 43 144 0.0 0.0 0.00 0.00 0.00 90 1011.3
20260502114553 40 144 0.0 0.0 0.00 0.00 0.00 90 1011.4
20260502113045 41 144 0.0 0.0 0.00 0.00 0.00 90 1011.4
20260502111543 38 144 0.0 0.0 0.00 0.00 0.00 90 1011.6
20260502110042 38 144 0.0 0.0 0.00 0.00 0.00 90 1011.4
20260502104543 38 144 0.0 0.0 0.00 0.00 0.00 90 1011.5
20260502103040 38 144 0.0 0.0 0.00 0.00 0.00 90 1011.4
20260502101540 39 144 0.0 0.0 0.00 0.00 0.00 90 1011.3
20260502091530 46 144 0.0 0.0 0.00 0.00 0.00 90 1010.8
20260502071518 49 144 0.0 0.0 0.00 0.00 0.00 90 1010.6
20260502070016 44 144 0.0 0.0 0.00 0.00 0.00 90 1010.6
20260502064513 46 144 0.0 0.0 0.00 0.00 0.00 90 1010.4
20260502063012 46 144 0.0 0.0 0.00 0.00 0.00 90 1010.1
20260502061516 45 144 0.0 0.0 0.00 0.00 0.00 90 1010.0
20260502060007 47 144 0.0 0.0 0.00 0.00 0.00 90 1009.6
20260502054507 50 144 0.0 0.0 0.00 0.00 0.00 90 1009.5
20260502053006 50 144 0.0 0.0 0.00 0.00 0.00 90 1009.3
20260502051513 50 144 0.0 0.0 0.00 0.00 0.00 90 1009.3
20260502050005 51 144 0.0 0.0 0.00 0.00 0.00 90 1009.2
20260502044505 58 144 0.0 0.0 0.00 0.00 0.00 90 1009.0
20260502043004 56 144 0.0 0.0 0.00 0.00 0.00 90 1009.0
20260502041514 59 144 0.0 0.0 0.00 0.00 0.00 90 1009.0
20260502040012 56 144 0.0 0.0 0.00 0.00 0.00 90 1008.9
20260502034506 55 144 0.0 0.0 0.00 0.00 0.00 90 1008.8
20260502033003 57 144 0.0 0.0 0.00 0.00 0.00 90 1008.4
20260502031503 56 144 0.0 0.0 0.00 0.00 0.00 90 1008.3
20260502030003 59 144 0.0 0.0 0.00 0.00 0.00 90 1008.0
20260502024502 58 144 0.0 0.0 0.00 0.00 0.00 90 1007.8
20260502023002 59 144 0.0 0.0 0.00 0.00 0.00 90 1007.6
20260502021501 61 144 0.0 0.0 0.00 0.00 0.00 90 1007.5
20260502020001 63 144 0.0 0.0 0.00 0.00 0.00 90 1007.5
20260502014600 64 144 0.0 0.0 0.00 0.00 0.00 90 1007.3
20260502013100 64 144 0.0 0.0 0.00 0.00 0.00 90 1007.3
20260502011600 65 144 1.0 0.0 0.00 0.00 0.00 90 1007.2
20260502010109 65 144 0.0 0.0 0.00 0.00 0.00 90 1007.5
20260502004607 65 144 4.0 0.0 0.00 0.00 0.00 90 1007.3
20260502003104 65 144 0.0 0.0 0.00 0.00 0.00 90 1007.6
20260502001556 65 144 5.0 0.0 0.00 0.00 0.00 90 1007.7
20260502000055 65 144 0.0 0.0 0.00 0.00 0.00 90 1007.7
20260501234554 65 144 4.0 0.0 0.00 0.00 0.00 90 1007.8
20260501233056 65 144 2.0 0.0 0.00 0.00 0.00 90 1007.9
20260501231556 65 144 1.0 0.0 0.00 0.00 0.00 90 1007.8
20260501230058 64 144 5.0 0.0 0.00 0.00 0.00 90 1008.1
20260501224550 64 144 4.0 0.0 0.00 0.00 0.00 90 1008.2
20260501223054 64 144 5.0 0.0 0.00 0.00 0.00 90 1008.5
20260501221546 65 144 0.0 0.0 0.00 0.00 0.00 90 1008.7
20260501220047 63 144 3.0 0.0 0.00 0.00 0.00 90 1008.9
20260501214552 63 144 5.0 0.0 0.00 0.00 0.00 90 1009.3
20260501213039 63 144 6.0 0.0 0.00 0.00 0.00 90 1009.5
20260501211543 63 144 4.0 0.0 0.00 0.00 0.00 90 1009.5
20260501210044 63 144 5.0 0.0 0.00 0.00 0.00 90 1009.5
20260501204606 62 144 4.0 0.0 0.00 0.00 0.00 90 1009.7
20260501203035 62 144 1.0 0.0 0.00 0.00 0.00 90 1009.7
20260501201534 62 144 0.0 0.0 0.00 0.00 0.00 90 1010.1
20260501200031 62 144 2.0 0.0 0.00 0.00 0.00 90 1010.1
20260501194532 61 144 1.0 0.0 0.00 0.00 0.00 90 1010.2
20260501193030 61 144 2.0 0.0 0.00 0.00 0.00 90 1010.5
20260501191528 61 144 6.0 0.0 0.00 0.00 0.00 90 1010.5
20260501190026 60 144 0.0 0.0 0.00 0.00 0.00 90 1010.6
20260501184527 60 144 2.0 0.0 0.00 0.00 0.00 90 1010.7
20260501183023 59 144 2.0 0.0 0.00 0.00 0.00 90 1011.0
20260501181520 59 144 1.0 0.0 0.00 0.00 0.00 90 1011.2
20260501180018 59 144 0.0 0.0 0.00 0.00 0.00 90 1011.4
20260501174533 58 144 0.0 0.0 0.00 0.00 0.00 90 1011.4
20260501173010 58 144 0.0 0.0 0.00 0.00 0.00 90 1011.7
20260501171506 58 144 0.0 0.0 0.00 0.00 0.00 90 1011.8
20260501170002 56 144 1.0 0.0 0.00 0.00 0.00 90 1012.0
20260501164504 57 144 0.0 0.0 0.00 0.00 0.00 90 1012.1
20260501163058 57 144 0.0 0.0 0.00 0.00 0.00 90 1012.2
20260501161557 56 144 0.0 0.0 0.00 0.00 0.00 90 1012.1
20260501160058 55 144 0.0 0.0 0.00 0.00 0.00 90 1012.2
20260501154550 55 144 0.0 0.0 0.00 0.00 0.00 90 1012.4
20260501153050 54 144 0.0 0.0 0.00 0.00 0.00 90 1012.5